Terug naar catalogus

BREEZE-M R/B

ActiefMEO
NORAD 37381·ROCKET BODY·🇷🇺 Russia

Gelanceerd Feb 11, 2008 vanaf Baikonur Cosmodrome

Loading…

Volgende Passages (komende 24 uur)

TLE

VersSource: Space-Track

Epoch: Sep 14, 2026, 04:18 UTC

1 37381U 08006C   26257.17948388 -.00000252  00000-0  00000-0 0  9996
2 37381  12.1893  27.3876 0245904 305.1570 250.0617  0.95124303 63801

Volg BREEZE-M R/B in realtime met AllMySat

Download on the App Store